GW2284 Weather Reports


Display with metric or nautical units.
time (UTC)temp
F
wind
direction
speed
MPH
gust
MPH
rain 1hr
in
rain 24hr
in
rain mn
in
humidity
%
barometer
mb
20260507223035 54 57 0.0 3.0 0.00 0.00 0.00 86 1014.3
20260507221536 54 55 1.0 3.0 0.00 0.00 0.00 84 1014.1
20260507220028 54 57 1.0 3.0 0.00 0.00 0.00 84 1014.1
20260507214527 54 57 1.0 3.0 0.00 0.00 0.00 83 1014.1
20260507213026 55 56 2.0 3.0 0.00 0.00 0.00 83 1013.9
20260507211525 55 55 1.0 3.0 0.00 0.00 0.00 82 1013.8
20260507210022 55 53 2.0 4.0 0.00 0.00 0.00 83 1013.9
20260507204520 55 49 0.0 3.0 0.00 0.00 0.00 82 1013.8
20260507203025 55 50 3.0 5.0 0.00 0.00 0.00 82 1013.7
20260507201515 55 57 0.0 2.0 0.00 0.00 0.00 81 1013.5
20260507200014 55 55 3.0 4.0 0.00 0.00 0.00 81 1013.3
20260507194515 55 51 2.0 4.0 0.00 0.00 0.00 80 1013.2
20260507193012 55 41 1.0 4.0 0.00 0.00 0.00 81 1012.9
20260507191510 56 55 1.0 4.0 0.00 0.00 0.00 79 1012.7
20260507190008 56 52 1.0 4.0 0.00 0.00 0.00 79 1012.6
20260507184508 57 57 3.0 5.0 0.00 0.00 0.00 79 1012.5
20260507183011 57 45 2.0 5.0 0.00 0.00 0.00 77 1012.3
20260507181537 56 71 0.0 2.0 0.00 0.00 0.00 78 1012.3
20260507180039 57 70 1.0 3.0 0.00 0.00 0.00 77 1012.1
20260507174537 58 61 2.0 4.0 0.00 0.00 0.00 76 1012.0
20260507173036 59 87 2.0 3.0 0.00 0.00 0.00 73 1012.0
20260507171535 60 88 0.0 4.0 0.00 0.00 0.00 70 1011.8
20260507170036 62 112 2.0 3.0 0.00 0.00 0.00 66 1011.8
20260507164501 62 161 0.0 5.0 0.00 0.00 0.00 55 1011.8
20260507163000 62 80 2.0 5.0 0.00 0.00 0.00 57 1011.7
20260507161530 62 163 2.0 5.0 0.00 0.00 0.00 57 1011.6
20260507160030 63 207 3.0 6.0 0.00 0.00 0.00 59 1011.6
20260507154526 62 147 2.0 6.0 0.00 0.00 0.00 61 1011.5
20260507153026 62 175 2.0 9.0 0.00 0.00 0.00 61 1011.5
20260507151525 64 151 3.0 10.0 0.00 0.00 0.00 60 1011.5
20260507150027 64 271 4.0 7.0 0.00 0.00 0.00 60 1011.4
20260507144528 66 149 4.0 9.0 0.00 0.00 0.00 56 1011.6
20260507143025 65 219 6.0 12.0 0.00 0.00 0.00 58 1011.7
20260507141518 65 246 6.0 12.0 0.00 0.00 0.00 60 1011.7
20260507140018 64 222 3.0 11.0 0.00 0.00 0.00 62 1012.0
20260507134513 64 248 3.0 8.0 0.00 0.00 0.00 64 1012.0
20260507133015 63 131 3.0 9.0 0.00 0.00 0.00 64 1012.1
20260507131512 64 119 5.0 13.0 0.00 0.00 0.00 63 1012.2
20260507130011 63 84 6.0 9.0 0.00 0.00 0.00 65 1012.2
20260507124507 64 104 0.0 8.0 0.00 0.00 0.00 66 1012.3
20260507123007 62 97 2.0 9.0 0.00 0.00 0.00 66 1012.5
20260507121502 62 257 2.0 8.0 0.00 0.00 0.00 69 1012.4
20260507120001 60 168 2.0 8.0 0.00 0.00 0.00 70 1012.5
20260507114526 60 232 3.0 8.0 0.00 0.00 0.00 70 1012.6
20260507113026 60 142 2.0 5.0 0.00 0.00 0.00 71 1012.9
20260507111525 60 134 2.0 5.0 0.00 0.00 0.00 71 1012.9
20260507104519 59 96 3.0 9.0 0.00 0.00 0.00 67 1013.0
20260507103018 60 169 2.0 7.0 0.00 0.00 0.00 71 1013.1
20260507101517 62 165 2.0 9.0 0.00 0.00 0.00 68 1013.1
20260507100051 61 155 3.0 10.0 0.00 0.01 0.00 68 1013.1
20260507094538 61 167 3.0 8.0 0.00 0.01 0.00 72 1012.9
20260507093006 60 107 4.0 12.0 0.00 0.01 0.00 72 1012.8
20260507091501 60 98 3.0 9.0 0.00 0.01 0.00 72 1012.8
20260507090059 59 180 3.0 9.0 0.00 0.01 0.00 74 1012.8
20260507084521 57 197 3.0 5.0 0.00 0.01 0.00 75 1012.7
20260507083054 57 184 1.0 5.0 0.00 0.01 0.00 79 1012.7
20260507081551 54 110 1.0 3.0 0.00 0.01 0.00 82 1012.9
20260507080100 52 109 0.0 3.0 0.00 0.01 0.00 82 1012.9
20260507074531 51 113 1.0 4.0 0.00 0.01 0.00 79 1012.9
20260507073028 51 128 1.0 3.0 0.00 0.01 0.00 81 1013.0
20260507071523 50 123 0.0 3.0 0.00 0.01 0.00 83 1012.9
20260507070058 48 110 1.0 3.0 0.00 0.01 0.00 88 1012.9
20260507064511 47 59 0.0 3.0 0.00 0.02 0.00 91 1012.9
20260507063007 46 58 0.0 3.0 0.00 0.02 0.00 91 1012.9
20260507061505 46 58 0.0 3.0 0.00 0.02 0.00 92 1012.8
20260507060100 45 58 1.0 3.0 0.00 0.02 0.00 92 1012.7
20260507054534 44 163 0.0 1.0 0.00 0.06 0.00 92 1012.6
20260507053059 44 280 1.0 2.0 0.00 0.06 0.00 92 1012.6
20260507051555 44 355 0.0 3.0 0.00 0.06 0.00 92 1012.3
20260507050050 43 59 0.0 1.0 0.00 0.20 0.00 92 1012.2
20260507044512 43 59 0.0 2.0 0.00 0.20 0.00 92 1012.1
20260507043008 43 57 1.0 3.0 0.00 0.20 0.00 92 1011.9
20260507041601 43 57 1.0 3.0 0.00 0.20 0.00 92 1011.7
20260507034600 43 56 0.0 4.0 0.00 0.27 0.00 92 1011.6
20260507033053 44 50 2.0 5.0 0.00 0.27 0.00 92 1011.4
20260507031548 44 60 0.0 4.0 0.00 0.27 0.00 92 1011.4
20260507030047 44 61 1.0 3.0 0.00 0.27 0.00 92 1011.3
20260507024518 44 45 0.0 2.0 0.00 0.27 0.00 92 1011.3
20260507023016 44 46 2.0 5.0 0.00 0.27 0.00 92 1011.4
20260507021516 44 24 0.0 1.0 0.00 0.27 0.00 92 1011.5
20260507020108 44 24 0.0 3.0 0.00 0.27 0.00 92 1011.5
20260507014541 44 44 0.0 0.0 0.00 0.27 0.00 92 1011.3
20260507013043 44 45 0.0 3.0 0.00 0.27 0.00 91 1011.2
20260507011532 44 30 0.0 4.0 0.00 0.27 0.00 91 1011.1
20260507010034 45 62 1.0 3.0 0.00 0.28 0.00 91 1011.2
20260507004528 45 61 0.0 1.0 0.00 0.28 0.00 91 1011.0
20260507003031 45 61 0.0 2.0 0.00 0.28 0.00 91 1010.9
20260507001522 45 58 0.0 3.0 0.00 0.28 0.00 91 1010.7
20260507000022 46 63 0.0 2.0 0.00 0.28 0.00 91 1010.6
20260506234519 46 63 0.0 4.0 0.00 0.28 0.00 91 1010.7
20260506233015 46 47 1.0 3.0 0.00 0.28 0.00 91 1010.6
20260506231513 47 46 1.0 4.0 0.00 0.28 0.00 91 1010.6
20260506230011 47 53 1.0 4.0 0.00 0.28 0.00 90 1010.6
20260506224509 47 45 0.0 4.0 0.00 0.28 0.00 90 1010.5